STARLINK-4384 (53218 NORAD) Tracking and Keplerian Element Data

This shows tracking and keplerian element data for the satellite.

Feedback or suggestion? Click here.




ElementValue
Catalog53218
NameSTARLINK-4384
Epoch Orbit1035
Epoch Day270.14750819
Epoch Year2022
RAAN329.9707
Inclination97.6543
Eccentricity0.0001792
Argument of Perigee153.8715
Mean Anonmoly206.26
Mean Motion15.01249905
Decay Rate3.3E-06
L11 53218U 22084AF 22270.14750819 .00000330 00000+0 30278-4 0 9992
L22 53218 97.6543 329.9707 0001792 153.8715 206.2600 15.01249905 10352

Live tracking and technical data element details for STARLINK-4384 (NORAD 53218). STARLINK-4384 can be tracked NOW for your location showing map with azimuth and elevation plus other details from your city location.

Track the satellite on the map from your city or location and see movement details for azimuth, elevation, latitude, longitude, range, height, and movement on the map or in text.







IsCatalogInMostPopularTable: catalog: 53218, numindb: 7
Update: records affected: 1



GetName: 53218 STARLINK-4384

Hit Count: updated at: Fri, 30 Sep 2022 03:19:01 GMT